Location: Asheville, NC
(35.6000°N, 82.5500°W)
Time: 19:42:38
(UTC-04:00)

Vanguard 2 - Pass Details

Date: 09 March 2018
Orbit: 553 x 2939 km, 32.9° (Epoch: 23 June)

Event Time Altitude Azimuth Distance (km) Brightness Sun altitude
Rises 11:52:30 0° 235° (SW) 5,999 12.2 48.5°
Reaches altitude 10° 11:56:09 10° 232° (SW) 5,223 12.1 48.7°
Maximum altitude 12:12:22 63° 157° (SSE) 3,165 12.6 49.5°
Drops below altitude 10° 12:29:12 10° 81° (E) 5,411 11.9 50.0°
Sets 12:33:02 0° 79° (E) 6,219 12.1 50.0°
